sat.trackr.live / text

‹ back to catalog

STARLINK-30203

NORAD 57498 · 2023-113D

PAYLOAD ACTIVE UNKNOWN

§ Identity

Operator
Country
US
Launch date
2023-08-07
Launch site
AFETR
Launch vehicle
Mass (kg)
RCS (m²)

Purposes: comms

External: N2YO · Heavens-Above · Gunter

§ Orbital elements

Epoch: 2026-09-20T07:36:12.199104Z

Period
94.27 min
Inclination
43.0063°
Eccentricity
0.0001914
Mean motion
15.27574367 rev/d
Perigee alt
481.8 km
Apogee alt
484.4 km
Semi-major
6,861.2 km
B*
-3.1757e-6
RAAN
356.6871°
Arg perigee
268.8422°
Mean anomaly
91.2210°
Rev number
17,346

§ Raw data

STARLINK-302031 57498U 23113D   26263.31680786 -.00000350  00000+0 -31757-5 0  99982 57498  43.0063 356.6871 0001914 268.8422  91.2210 15.27574367173467

JSON: /api/v1/satellites/57498 · /tle

For live sub-satellite position, see the globe view (requires WebGL).

§ Visibility from observer

Set your observer location to see the next 7 days of passes ≥ 10°. The values pass through the URL so the page stays shareable.

No JS? Fill the form by hand. The geolocation button needs JavaScript.